Location: Anglesey
(53.1800°N, 4.2200°W)
Time: 14:33:35
(UTC+00:00)

N. Korean satellite - Pass Details

Date: 11 October 2017
Orbit: 461 x 513 km, 97.2° (Epoch: 17 December)

Event Time Altitude Azimuth Distance (km) Brightness Sun altitude
Rises 19:20:09 0° 173° (S) 2,553 10.2 -8.3°
Reaches altitude 10° 19:22:15 10° 177° (S) 1,667 9.3 -8.6°
Maximum altitude 19:25:48 61° 258° (WSW) 552 7.2 -9.2°
Drops below altitude 10° 19:29:19 10° 340° (NNW) 1,653 9.5 -9.7°
Sets 19:31:23 0° 344° (NNW) 2,529 10.4 -10.0°
